Tracking 19827 objects as of 21-Aug-2019
HD Live streaming from Space Station
objects crossing your sky now

SL-16 DEB

Track SL-16 DEB now!
10-day predictions


NORAD ID: 22602
Int'l Code: 1993-016L
Perigee: 847.3 km
Apogee: 1,141.3 km
Inclination: 71.0 °
Period: 104.8 minutes
Semi major axis: 7365 km
RCS: 0.0922 m2 (small)
Launch date: March 26, 1993
Source: Commonwealth of Independent States (former USSR) (CIS)
Launch site: TYURATAM MISSILE AND SPACE COMPLEX (TTMTR)

Note: This is SATELLITE DEBRIS
aabbcc
Your satellite tracking list
Your tracking list is empty




NASA's NSSDC Master Catalog

Two Line Element Set (TLE):
1 22602U 93016L   19232.97260667 +.00000070 +00000-0 +10393-3 0  9997
2 22602 071.0443 149.9708 0199609 048.5654 025.8600 13.73460056322886
Source of the keplerian elements: AFSPC